Location: Saint-Denis
(20.8800°S, 55.4481°E)
Time: 09:04:06
(UTC+04:00)

FO-29 - Visible Passes

Search period start: 03 June 2023 00:00
Search period end: 13 June 2023 00:00
Orbit: 799 x 1322 km, 98.5° (Epoch: 02 June)

Date Brightness Start Highest point End Pass type
(mag) Time Alt. Az. Time Alt. Az. Time Alt. Az.
03 Jun 12.2 02:59:09 10° ENE 03:00:18 14° ENE 03:00:18 14° ENE visible
03 Jun 10.2 04:42:01 10° N 04:46:46 43° NW 04:46:46 43° NW visible
04 Jun 10.8 03:46:52 10° NNE 03:50:58 39° NE 03:50:58 39° NE visible
04 Jun 11.2 05:34:31 10° NW 05:37:26 16° WNW 05:37:26 16° WNW visible
05 Jun 12.3 02:54:17 10° ENE 02:55:08 13° ENE 02:55:08 13° ENE visible
05 Jun 10.2 04:36:45 10° N 04:41:36 46° NW 04:41:36 46° NW visible
06 Jun 11.0 03:41:46 10° NNE 03:45:48 37° NE 03:45:48 37° NE visible
06 Jun 11.1 05:28:55 10° NW 05:32:16 18° WNW 05:32:16 18° WNW visible
07 Jun 12.4 02:49:27 10° ENE 02:49:58 11° ENE 02:49:58 11° ENE visible
07 Jun 10.2 04:31:29 10° N 04:36:27 49° NNW 04:36:27 49° NNW visible
08 Jun 11.1 03:36:42 10° NE 03:40:38 35° ENE 03:40:38 35° ENE visible
08 Jun 11.1 05:23:23 10° NW 05:27:06 20° WNW 05:27:06 20° WNW visible
09 Jun 12.5 02:44:39 10° ENE 02:44:48 10° ENE 02:44:48 10° ENE visible
09 Jun 10.2 04:26:16 10° N 04:31:17 51° NNW 04:31:17 51° NNW visible
10 Jun 11.2 03:31:39 10° NE 03:35:28 32° ENE 03:35:28 32° ENE visible
10 Jun 11.0 05:17:55 10° NW 05:21:56 23° WNW 05:21:56 23° WNW visible
11 Jun 10.2 04:21:03 10° N 04:26:07 52° NNW 04:26:07 52° NNW visible
12 Jun 11.4 03:26:37 10° NE 03:30:17 30° ENE 03:30:17 30° ENE visible
12 Jun 10.9 05:12:29 10° NNW 05:16:46 25° WNW 05:16:46 25° WNW visible
